AirNav   Air Wisconsin Up To $57,000 Bonus
 
 1010 users online  

FD19 Lawnwood Medical Center Heliport
Fort Pierce, Florida, USA

GOING TO FORT PIERCE?


FAA INFORMATION EFFECTIVE 05 DECEMBER 2019

Location

FAA Identifier: FD19
Lat/Long: 27-25-58.4000N 080-20-45.7500W
27-25.973333N 080-20.762500W
27.4328889,-80.3460417
(estimated)
Elevation: 18 ft. / 5 m (estimated)
Variation: 03W (1985)
Time zone: UTC -5 (UTC -4 during Daylight Saving Time)
Zip code: 34950

Heliport Operations

Heliport use: Private use, MEDICAL.
Activation date: 10/1984
Control tower: no
ARTCC: MIAMI CENTER
FSS: MIAMI FLIGHT SERVICE STATION
Attendance: CONTINUOUS
Wind indicator: yes
Segmented circle: no

Heliport Communications

WX ASOS at FPR (4 nm N): PHONE 772-489-4281
WX ASOS at VRB (14 nm N): PHONE 772-978-9535
WX AWOS-3 at SUA (16 nm SE): PHONE 772-692-7399

Nearby radio navigation aids

VOR radial/distance  VOR name  Freq  Var
TRVr160/16.6TREASURE VORTAC117.3007W

 
NDB name  Hdg/Dist  Freq  Var  ID
FORT PIERCE163/3.527507WFPR ..-. .--. .-.
UNITED004/31.440505WUTX ..- - -..-

Heliport Services

Runway Information

Helipad H1

Dimensions: 70 x 63 ft. / 21 x 19 m
Surface: asphalt
Latitude: 27-25.973333N
Longitude: 080-20.762500W
Elevation: 18.0 ft.
Traffic pattern: leftleft

Heliport Ownership and Management from official FAA records

Ownership: Privately-owned
Owner: LAWNWOOD MEDICAL CENTER
1700 SOUTH 23RD ST
FORT PIERCE, FL 45950
Phone (772) 332-9718
Manager: JOSE H. VALVOURT JR.
1700 SOUTH 23RD ST
FORT PIERCE, FL 34950
Phone (772) 332-9718

Additional Remarks

A52-H1 PLINE MARKED NORTH SIDE.
FOR CD CTC PALM BEACH APCH AT 561-275-1430

Instrument Procedures

There are no published instrument procedures at FD19.

Some nearby airports with instrument procedures:

KFPR - Treasure Coast International Airport (4 nm N)
KVRB - Vero Beach Regional Airport (14 nm N)
KSUA - Witham Field Airport (16 nm SE)
X26 - Sebastian Municipal Airport (24 nm N)
KOBE - Okeechobee County Airport (29 nm W)
 
Loc | Ops | Rwys | IFR | FBO | Links
Com | Nav | Svcs | Stats | Notes

Reliance Aviation
AirBoss

 
Area around FD19 (Lawnwood Medical Center Heliport)
 
Road maps at: MapQuest Bing Google
 
Aerial photo
No photo
 
Sectional chart

 
Airport distance calculator
Flying to Lawnwood Medical Center Heliport? Find the distance to fly.

From to FD19

Sunrise and sunset
Times for 13-Dec-2019
 Local
(UTC-5)
 Zulu
(UTC)
Morning civil twilight06:3811:38
Sunrise07:0412:04
Sunset17:2722:27
Evening civil twilight17:5322:53

Current date and time
Zulu (UTC)  13-Dec-2019 22:06:11
Local (UTC-5)  13-Dec-2019 17:06:11
 
METAR
KFPR 
4nm NW 
132153Z 22004KT 10SM CLR 24/19 A2988 RMK AO2 SLP119 T02440194
KVRB 
14nm N 
132153Z 22006KT 10SM SCT028 26/19 A2988 RMK AO2 SLP118 T02560194
KSUA 
16nm SE 
132047Z 25006KT 7SM BKN035 26/19 A2989
TAF
KFPR 
4nm NW 
131750Z 1318/1418 15008KT P6SM VCSH FEW040 SCT080 OVC200 TEMPO 1318/1321 3SM SHRA BKN020 OVC040 FM132100 18008KT P6SM VCTS BKN035CB OVC070 FM140000 21004KT P6SM SCT030 BKN100 OVC250 FM141400 24010KT P6SM VCSH SCT030 OVC050
KVRB 
14nm N 
131750Z 1318/1418 17010KT P6SM VCSH FEW040 SCT080 OVC200 TEMPO 1318/1321 3SM SHRA BKN020 OVC040 FM132100 18008KT P6SM VCTS BKN035CB OVC070 FM140000 21004KT P6SM SCT030 BKN100 OVC250 FM141400 24010KT P6SM VCSH SCT030 OVC050 FM141700 27012G18KT P6SM SCT030 BKN050
KSUA 
16nm SE 
131750Z 1318/1418 15008KT P6SM VCSH FEW030 BKN080 OVC200 TEMPO 1318/1321 3SM SHRA BKN020 OVC040 FM132100 18008KT P6SM VCTS BKN035CB OVC070 FM140000 21004KT P6SM SCT030 BKN100 OVC250 FM141400 24010KT P6SM VCSH SCT030 OVC050
NOTAMs
Click for the latest NOTAMs
NOTAMs are issued by the DoD/FAA and will open in a separate window not controlled by AirNav.

 

 
 

Would you like to see your business listed on this page?

 If your business provides an interesting product or service to pilots, flight crews, aircraft, or users of the Lawnwood Medical Center Heliport, you should consider listing it here.  To start the listing process, click on the button below
 
Add a business
 

Other Pages about Lawnwood Medical Center Heliport

Update a link
 
Copyright © AirNav, LLC. All rights reserved. Privacy Policy  Contact